Regional Weather Roundup
Issued by NWS Cleveland, OH

Home | Current Version | Previous Version | Graphics & Text | Print | Product List | Glossary On
Versions: 1 2 3 4 5 6 7 8 9 10 11 12 13 14 15 16 17 18 19 20 21 22 23 24 25 26 27 28 29 30 31 32 33 34 35 36 37 38 39 40 41 42 43 44 45 46 47 48 49 50
000
ASUS41 KCLE 021600
RWRCLE
OHIO REGIONAL WEATHER ROUNDUP
NATIONAL WEATHER SERVICE WILMINGTON, OH
1200 PM EDT WED SEP 02 2015

NOTE: "FAIR" INDICATES FEW OR NO CLOUDS BELOW 12,000 FEET WITH NO
SIGNIFICANT WEATHER AND/OR OBSTRUCTIONS TO VISIBILITY.

OHZ001>008-015>018-024>027-034-035-043-044-021700-
   NORTHWEST OHIO

CITY           SKY/WX    TMP DP  RH WIND       PRES   REMARKS
DEFIANCE       PTSUNNY   82  71  69 VRB5      30.09S
FINDLAY        PTSUNNY   82  70  66 CALM      30.09F
TOLEDO EXPRESS PTSUNNY   75  70  84 SE6       30.09S
TOLEDO EXEC    LGT RAIN  73  68  84 S6        30.09F
LIMA           PTSUNNY   80  70  71 SW7       30.12S
$$

OHZ009>014-019>023-028>033-038-089-021700-
   NORTHEAST OHIO

CITY           SKY/WX    TMP DP  RH WIND       PRES   REMARKS
CLE-HOPKINS    MOSUNNY   83  70  64 SW9       30.10F
CLE-LAKEFRONT  SUNNY     79  70  74 NW6       30.07S
CUY CO. ARPT   MOSUNNY   86  72  62 W8        30.09S HX  92
LORAIN-ELYRIA  SUNNY     83  70  64 SW7       30.09F
ASHTABULA      SUNNY     83  70  64 S7        30.08F
AKRON-CANTON   MOSUNNY   84  67  56 W6        30.11F
WOOSTER        NOT AVBL
MANSFIELD      SUNNY     82  67  60 SW10      30.12F
YOUNGSTOWN     MOSUNNY   82  66  58 SW8       30.10F
$$

OHZ042-051>053-060>062-070>072-077>081-021700-
  SOUTHWEST OHIO

CITY           SKY/WX    TMP DP  RH WIND       PRES   REMARKS
CINC-COVINGTON MOSUNNY   84  69  60 W6        30.15S
CINC-LUNKEN    SUNNY     84  68  58 SW7       30.13F
HAMILTON       SUNNY     85  70  60 W8        30.14F
DAYTON         NOT AVBL
WRIGHT-PAT AFB NOT AVBL
DAYTON GENERAL MOSUNNY   81  69  67 SW7       30.14S
WILMINGTON     MOSUNNY   79  68  69 W9        30.14S
$$

OHZ036-037-039>041-045>050-054>059-063>069-073>076-082>088-021700-
  CENTRAL AND SOUTHEAST OHIO

CITY           SKY/WX    TMP DP  RH WIND       PRES   REMARKS
COLUMBUS       PTSUNNY   81  68  64 SW10      30.13S
OSU AIRPORT    PTSUNNY   79  70  74 SW10      30.13F
BOLTON FIELD   MOSUNNY   75  70  83 SW5       30.15F
RICKENBACK AFB NOT AVBL
NEWARK         MOSUNNY   82  68  62 W5        30.12F
MARION         SUNNY     81  67  62 SW7       30.12F
LANCASTER      PTSUNNY   84  65  52 W8        30.13F
ZANESVILLE     MOSUNNY   84  64  50 VRB6      30.12F
NEW PHILLY     MOSUNNY   84  68  58 W7        30.11F
$$



USA.gov is the U.S. government's official web portal to all federal, state and local government web resources and services.